Total_Precipitation_Accumulation
0.02 0.08 0.23 0.45 0.70 1.14 1.34 0.90 0.68 0.62 0.53 0.49 0.44 0.36 0.40 0.50 0.56 0.91 0.58 0.28 0.13 0.09 0.11 0.18 0.22 0.16 0.14 0.16 0.21 0.24 0.23 0.20 0.20 0.21 0.23 0.24 0.32 0.41 0.41 0.46 0.56 0.61 0.56 0.50 0.52 0.45 0.40 0.39 0.35
0.02 0.10 0.26 0.53 0.99 1.56 1.31 0.69 0.56 0.59 0.47 0.48 0.49 0.44 0.46 0.49 0.41 0.34 0.36 0.28 0.14 0.10 0.13 0.15 0.19 0.19 0.16 0.16 0.21 0.24 0.24 0.23 0.24 0.25 0.23 0.22 0.25 0.30 0.34 0.42 0.52 0.58 0.55 0.50 0.38 0.33 0.31 0.26 0.21
0.06 0.14 0.26 0.50 0.95 1.35 0.99 0.57 0.43 0.44 0.43 0.53 0.65 0.57 0.58 0.57 0.48 0.42 0.39 0.26 0.18 0.14 0.12 0.19 0.24 0.24 0.21 0.18 0.21 0.24 0.26 0.27 0.27 0.27 0.25 0.24 0.24 0.28 0.31 0.36 0.44 0.43 0.38 0.34 0.30 0.29 0.26 0.21 0.17
0.07 0.19 0.32 0.45 0.60 0.56 0.56 0.55 0.42 0.49 0.61 0.58 0.64 0.75 0.66 0.51 0.48 0.53 0.53 0.39 0.25 0.21 0.17 0.22 0.28 0.27 0.27 0.23 0.24 0.27 0.27 0.29 0.27 0.27 0.26 0.26 0.28 0.31 0.31 0.31 0.34 0.34 0.34 0.31 0.31 0.31 0.27 0.22 0.19
0.08 0.20 0.33 0.41 0.47 0.40 0.43 0.48 0.44 0.50 0.55 0.56 0.60 0.88 0.86 0.66 0.56 0.56 0.52 0.50 0.34 0.40 0.34 0.32 0.37 0.36 0.32 0.27 0.26 0.26 0.27 0.30 0.27 0.27 0.27 0.26 0.28 0.29 0.28 0.28 0.27 0.28 0.32 0.32 0.31 0.31 0.25 0.29 0.29
0.08 0.17 0.32 0.33 0.35 0.32 0.38 0.44 0.44 0.50 0.56 0.65 0.76 1.03 1.02 0.83 0.80 0.78 0.78 0.67 0.48 0.54 0.51 0.44 0.44 0.42 0.40 0.34 0.32 0.33 0.30 0.30 0.31 0.30 0.27 0.25 0.24 0.25 0.26 0.26 0.24 0.21 0.23 0.26 0.30 0.33 0.29 0.30 0.34
0.05 0.11 0.21 0.22 0.21 0.28 0.32 0.31 0.39 0.57 0.79 0.87 0.97 1.18 1.10 1.22 1.19 1.10 1.11 0.98 0.73 0.66 0.62 0.54 0.49 0.44 0.46 0.43 0.40 0.40 0.38 0.37 0.36 0.33 0.28 0.24 0.23 0.23 0.24 0.25 0.24 0.23 0.23 0.24 0.26 0.28 0.28 0.28 0.31
0.03 0.07 0.12 0.17 0.17 0.23 0.26 0.26 0.30 0.44 0.80 0.88 0.92 1.03 1.29 1.21 1.25 1.51 1.48 1.39 1.14 1.00 0.78 0.65 0.63 0.61 0.57 0.54 0.49 0.48 0.43 0.42 0.43 0.38 0.36 0.33 0.32 0.28 0.31 0.31 0.30 0.32 0.32 0.27 0.24 0.28 0.27 0.31 0.30
0.03 0.08 0.10 0.11 0.14 0.17 0.19 0.24 0.28 0.40 0.57 0.78 0.96 0.90 1.01 0.96 1.11 1.50 1.70 1.83 1.71 1.35 1.10 0.89 0.79 0.76 0.72 0.66 0.59 0.64 0.60 0.57 0.56 0.54 0.52 0.47 0.45 0.47 0.51 0.46 0.50 0.50 0.50 0.50 0.48 0.50 0.48 0.48 0.39
0.03 0.06 0.07 0.07 0.10 0.13 0.12 0.16 0.20 0.41 0.84 1.18 1.27 1.03 1.02 1.11 1.45 1.75 1.81 1.82 1.89 1.50 1.21 1.11 1.02 0.89 0.82 0.71 0.77 0.93 0.85 0.78 0.76 0.83 0.78 0.77 0.82 0.78 0.60 0.64 0.82 0.97 1.02 0.99 1.06 1.17 0.96 0.77 0.79
0.02 0.03 0.05 0.06 0.07 0.07 0.07 0.11 0.19 0.36 0.83 1.15 1.28 1.21 1.32 1.37 1.68 1.99 2.11 1.92 1.91 1.77 1.46 1.34 1.24 1.14 1.11 1.18 1.07 1.09 1.08 1.09 1.05 1.09 1.13 1.14 1.02 0.89 0.84 0.95 1.17 1.36 1.42 1.39 1.71 1.76 1.29 1.36 1.67
0.01 0.01 0.03 0.05 0.07 0.05 0.06 0.11 0.27 0.42 0.66 0.93 1.02 1.50 1.70 1.62 1.90 2.05 2.15 2.24 2.20 2.12 1.80 1.60 1.50 1.49 1.49 1.44 1.37 1.26 1.27 1.29 1.32 1.39 1.40 1.49 1.55 1.45 1.42 1.49 1.54 1.71 1.83 2.05 2.18 2.29 1.99 1.97 1.87
0.01 0.01 0.02 0.04 0.06 0.07 0.09 0.15 0.22 0.48 0.63 0.82 1.03 1.42 1.63 1.55 1.88 2.13 2.43 2.52 2.54 2.31 2.00 1.95 1.73 1.63 1.65 1.74 1.79 1.62 1.69 1.64 1.61 1.72 1.79 1.86 2.04 2.03 1.99 1.87 1.87 1.82 2.00 2.21 2.52 2.45 2.69 2.63 2.34
0.01 0.03 0.03 0.04 0.06 0.11 0.25 0.33 0.32 0.59 0.67 0.84 1.08 1.48 1.57 1.51 1.63 1.64 2.02 2.38 2.48 2.26 2.09 2.05 1.92 1.96 2.05 2.03 2.05 2.11 2.12 2.08 2.03 2.00 2.04 2.08 2.28 2.48 2.41 2.19 2.17 2.06 2.12 2.43 2.67 2.70 3.09 2.92 2.76
0.02 0.06 0.08 0.09 0.13 0.20 0.30 0.50 0.53 0.67 0.72 0.98 1.05 1.25 1.40 1.38 1.46 1.58 1.81 2.11 2.21 2.03 2.14 2.30 2.41 2.59 2.69 2.67 2.62 2.53 2.57 2.48 2.47 2.59 2.59 2.62 2.59 2.61 2.49 2.35 2.25 2.36 2.49 2.65 2.70 2.81 3.14 2.88 2.78
0.04 0.13 0.20 0.21 0.21 0.27 0.45 0.89 0.83 0.87 0.84 0.91 0.97 1.13 1.25 1.27 1.40 1.67 1.81 1.97 2.16 2.06 2.17 2.42 2.53 2.87 3.05 3.09 3.14 3.08 3.02 2.87 2.92 2.92 2.92 2.89 2.79 2.67 2.71 2.48 2.28 2.50 2.64 2.81 2.97 2.94 3.02 3.03 3.00
0.07 0.14 0.22 0.27 0.19 0.21 0.38 0.72 0.68 0.77 0.95 0.90 0.93 0.99 1.06 1.11 1.21 1.40 1.64 1.82 2.11 2.39 2.58 2.92 3.03 2.97 3.06 3.24 3.37 3.18 3.09 2.96 2.87 2.79 2.79 2.69 2.60 2.57 2.83 2.63 2.59 2.72 2.91 2.82 2.63 2.99 3.11 3.05 3.04
0.06 0.13 0.18 0.23 0.22 0.20 0.33 0.52 0.61 0.70 0.85 0.96 0.96 1.05 1.13 1.24 1.45 1.67 1.96 2.10 2.27 2.68 2.96 3.08 3.17 3.40 3.70 3.88 3.77 3.52 3.15 2.87 2.74 2.63 2.51 2.45 2.51 2.54 2.79 2.59 2.62 2.81 3.00 3.05 3.04 3.14 3.10 2.97 3.04
0.05 0.12 0.15 0.19 0.24 0.25 0.36 0.43 0.69 0.90 1.02 1.14 1.29 1.50 1.65 1.84 1.95 2.13 2.41 2.57 2.59 2.65 2.83 3.05 3.40 3.79 3.90 3.78 3.72 3.63 3.29 3.01 2.67 2.38 2.33 2.41 2.36 2.44 2.71 2.46 2.75 2.88 2.93 3.04 3.07 3.20 3.10 2.94 3.10
0.06 0.12 0.17 0.21 0.26 0.26 0.41 0.51 0.74 1.11 1.23 1.20 1.25 1.29 1.34 1.69 1.94 2.17 2.40 2.47 2.39 2.51 2.76 3.10 3.39 3.74 3.70 3.80 3.97 3.86 3.60 3.04 2.68 2.48 2.35 2.34 2.34 2.35 2.47 2.75 2.79 2.87 2.95 2.95 2.89 2.92 2.75 2.57 2.92
0.08 0.11 0.16 0.21 0.32 0.29 0.40 0.73 0.94 1.21 1.33 1.23 1.21 1.22 1.17 1.33 1.60 1.76 1.90 2.02 2.25 2.60 2.98 3.20 3.42 3.55 3.60 3.74 3.82 3.50 3.28 2.84 2.69 2.64 2.46 2.35 2.42 2.45 2.54 2.70 2.78 2.70 2.64 2.68 2.77 2.67 2.54 2.39 2.53
0.10 0.09 0.09 0.15 0.26 0.40 0.50 1.04 1.33 1.51 1.37 1.13 1.18 1.23 1.33 1.42 1.45 1.55 1.66 1.94 2.27 2.61 3.04 3.41 3.39 3.39 3.33 3.46 3.55 3.33 2.98 2.69 2.57 2.53 2.31 2.17 2.14 2.19 2.28 2.35 2.49 2.54 2.52 2.50 2.45 2.43 2.44 2.39 2.28
0.07 0.07 0.08 0.14 0.22 0.39 0.56 0.95 1.37 1.44 1.32 1.08 1.02 1.20 1.41 1.35 1.34 1.45 1.54 1.78 1.98 2.30 2.64 2.99 3.22 3.26 3.14 3.11 3.13 3.14 2.88 2.55 2.38 2.30 2.17 2.09 2.10 1.99 1.98 2.07 2.24 2.27 2.20 2.19 2.31 2.49 2.46 2.32 2.20
0.06 0.07 0.12 0.22 0.40 0.69 0.55 0.69 1.11 1.32 1.19 0.96 0.96 1.11 1.25 1.40 1.40 1.47 1.68 1.83 1.90 2.10 2.39 2.59 2.76 2.83 2.77 2.70 2.68 2.71 2.63 2.48 2.28 2.11 2.11 2.12 2.03 1.88 1.83 1.84 1.93 1.98 1.98 1.95 1.98 2.10 2.15 2.14 2.23
0.07 0.15 0.45 0.78 1.07 0.95 0.61 0.72 1.07 1.00 0.84 0.75 0.82 1.05 1.29 1.51 1.48 1.55 1.71 1.81 1.88 1.93 2.02 2.10 2.16 2.25 2.21 2.16 2.13 2.13 2.11 2.09 1.97 1.91 1.96 1.99 1.91 1.79 1.74 1.68 1.63 1.62 1.65 1.74 1.91 1.93 1.94 2.02 2.13
0.10 0.19 0.53 0.70 0.83 0.82 0.77 1.00 1.07 0.83 0.71 0.71 0.76 0.93 1.18 1.33 1.35 1.42 1.49 1.42 1.37 1.41 1.48 1.56 1.58 1.61 1.60 1.65 1.74 1.74 1.81 1.80 1.74 1.81 1.81 1.83 1.80 1.73 1.61 1.48 1.41 1.38 1.40 1.50 1.69 1.87 1.87 1.95 2.00
0.20 0.24 0.26 0.42 0.50 0.80 0.98 1.12 1.04 0.76 0.86 0.85 0.91 0.97 1.02 1.05 1.04 1.03 1.02 1.07 1.12 1.14 1.15 1.17 1.22 1.25 1.19 1.22 1.35 1.43 1.46 1.49 1.51 1.59 1.61 1.54 1.51 1.43 1.39 1.36 1.34 1.29 1.31 1.35 1.40 1.54 1.55 1.64 1.69
0.21 0.33 0.44 0.65 0.82 0.94 0.98 1.25 1.40 1.25 1.17 1.06 1.16 1.38 1.20 0.94 0.88 0.88 0.83 0.83 0.85 0.87 0.96 1.04 1.10 1.20 1.16 1.09 1.11 1.10 1.14 1.17 1.29 1.35 1.34 1.35 1.38 1.35 1.26 1.27 1.26 1.21 1.18 1.19 1.24 1.27 1.33 1.33 1.36
0.32 0.40 0.50 0.63 0.72 0.90 1.05 1.18 1.06 1.18 1.14 1.12 1.16 1.22 1.05 0.74 0.63 0.66 0.61 0.62 0.66 0.75 0.86 0.90 1.04 1.13 1.05 0.94 0.94 0.97 0.95 0.98 1.05 1.13 1.11 1.15 1.22 1.29 1.28 1.23 1.19 1.08 1.02 1.01 1.04 1.05 1.14 1.16 1.15
0.27 0.40 0.51 0.67 0.74 0.79 0.93 1.03 0.67 0.80 0.82 0.83 0.91 0.80 0.68 0.56 0.46 0.57 0.56 0.51 0.54 0.58 0.64 0.72 0.83 0.95 0.93 0.89 0.91 0.95 0.97 0.94 0.93 0.96 0.95 0.96 1.01 1.02 1.01 1.01 1.07 1.09 1.07 1.04 1.03 1.00 0.98 1.03 1.05